Regional Weather Roundup
Issued by NWS

Home | Current Version | Previous Version | Text Only | Print | Product List | Glossary On
Versions: 1 2 3 4 5 6 7 8 9 10 11 12 13 14 15 16 17 18 19 20 21 22 23 24 25 26 27 28 29 30 31 32 33 34 35 36 37 38 39 40 41 42 43 44 45 46 47 48 49 50
000
ASUS43 KDMX 040807
RWRIA

WEATHER ROUNDUP FOR IOWA
NATIONAL WEATHER SERVICE DES MOINES IA
300 AM CDT TUE AUG 04 2015

NOTE: "FAIR" INDICATES FEW OR NO CLOUDS BELOW 12,000 FEET WITH NO
SIGNIFICANT WEATHER AND/OR OBSTRUCTIONS TO VISIBILITY.

* - THESE STATIONS ARE NOT NWS STATIONS...THUS NOT UNDER NWS
QUALITY CONTROL.  THEY ALSO DO NOT REPORT WEATHER SUCH
AS PRECIPITATION OR FOG.

IAZ001>003-012>014-020>022-031>034-043>046-040900-
   NORTHWEST IOWA

CITY           SKY/WX    TMP DP  RH WIND       PRES   REMARKS
CARROLL *      MOCLDY    61  61 100 CALM      29.96F
CHEROKEE *     CLEAR     61  61 100 CALM      29.96F
DENISON *      CLOUDY    66  64  94 E3        29.94F
LE MARS *      CLEAR     61  59  94 N3        29.96F
ORANGE CITY *  CLEAR     63  59  88 NE3       29.96F
SHELDON *      CLEAR     57  55  94 CALM      29.96F
SIOUX CITY     CLEAR     66  61  84 E6        29.94F
SPENCER        CLEAR     58  54  86 N3        29.98F
STORM LAKE *   CLEAR     63  57  82 SW5       29.98F
$$

IAZ055>058-069>071-079>083-090>094-040900-
   SOUTHWEST IOWA

CITY           SKY/WX    TMP DP  RH WIND       PRES   REMARKS
ATLANTIC *     CLOUDY    64  64 100 N3        29.96F
AUDUBON *      CLOUDY    64  63  94 CALM      29.98F
CLARINDA *     MOCLDY    70  63  78 SW6       29.99R
COUNCIL BLFS *   N/A     68  63  83 E6        29.97F
CRESTON *      MOCLDY    66  61  82 CALM      29.98S
HARLAN  *      MOCLDY    66  66 100 CALM      30.00S
LAMONI         MOCLDY    69  63  81 E5        29.96S
RED OAK *      MOCLDY    68  64  88 CALM      29.97S
SHENANDOAH *   CLOUDY    68  64  88 SE7       29.97S
$$

IAZ047>049-059>061-072>074-084-040900-
   CENTRAL IOWA

CITY           SKY/WX    TMP DP  RH WIND       PRES   REMARKS
AMES           CLEAR     61  58  90 CALM      29.96F
ANKENY *       PTCLDY    63  61  94 CALM      29.95F
CHARITON *     PTCLDY    66  61  82 SE3       29.96S
DES MOINES     PTCLDY    69  59  70 CALM      29.94F
GRINNELL*      PTCLDY    57  55  94 CALM      29.97F
KNOXVILLE *    MOCLDY    66  59  77 CALM      29.94F
MARSHALLTOWN   CLEAR     59  57  93 CALM      29.96F
PELLA *        CLEAR     61  61 100 CALM      29.96F
PERRY *          N/A     63  63 100 CALM      29.96F
$$

IAZ004>006-015-016-023>025-035-036-040900-
   NORTH CENTRAL IOWA

CITY           SKY/WX    TMP DP  RH WIND       PRES   REMARKS
ALGONA *       CLEAR     57  57 100 CALM      29.99S
CLARION *      CLEAR     55  54  94 CALM      29.98S
ESTHERVILLE    CLEAR     55  53  93 CALM      29.98F
FORT DODGE *   CLEAR     57  55  94 CALM      29.98F
MASON CITY     CLEAR     57  54  89 W3        29.99S
FOREST CITY *  CLEAR     54  54 100 CALM      29.98S
IOWA FALLS *     N/A     57  55  94 CALM      29.99S
$$

IAZ007>011-017>019-026>030-037>042-050>054-066-040900-
   NORTHEAST IOWA

CITY           SKY/WX    TMP DP  RH WIND       PRES   REMARKS
CEDAR RAPIDS   CLEAR     60  58  92 NW3       29.95S
CHARLES CITY * CLEAR     55  55 100 W3        29.97S
CLINTON *      CLEAR     55  54  94 W7        29.97R
DECORAH *      CLEAR     57  54  88 SW3       29.95S
DUBUQUE        CLEAR     56  53  90 SW3       29.95S
MONTICELLO *   CLEAR     54  54 100 CALM      29.96R
OELWEIN *      CLEAR     57  57 100 W5        29.97S
WATERLOO       CLEAR     57  55  93 CALM      29.96S
$$

IAZ064-065-067-068-078-040900-
   EAST CENTRAL IOWA

CITY           SKY/WX    TMP DP  RH WIND       PRES   REMARKS
DAVENPORT      CLEAR     57  54  89 NW3       29.96R
IOWA CITY      CLEAR     60  57  89 CALM      29.96F
MT. PLEASANT * CLEAR     61  57  88 CALM      29.96S
MUSCATINE *    CLEAR     59  57  94 CALM      29.95S
QUAD CITIES    CLEAR     61  56  83 CALM      29.94F
$$

IAZ062-063-075>077-085>089-095>099-040900-
   SOUTHEAST IOWA

CITY           SKY/WX    TMP DP  RH WIND       PRES   REMARKS
BURLINGTON     CLEAR     61  59  93 CALM      29.95F
FAIRFIELD *    PTCLDY    59  57  94 W5        29.96S
FORT MADISON * PTCLDY    61  59  94 CALM      29.96F
KEOKUK *       MOCLDY    66  61  82 CALM      29.95S
OSKALOOSA *      N/A     57  57 100 CALM      29.97S
CENTERVILLE *  CLEAR     63  61  94 S3        29.98R
OTTUMWA        CLOUDY    63  61  93 CALM      29.94F
WASHINGTON *   CLEAR     59  57  94 CALM      29.97S
$$

ABBREVIATIONS USED IN REMARKS
   TC - TEMPERATURES IN CELSIUS
  WCI - WIND CHILL INDEX
   HX - HEAT INDEX
  VSB - VISIBILITY
$$




USA.gov is the U.S. government's official web portal to all federal, state and local government web resources and services.